EXS5XU EGPF-GCTS

Flight info

Callsign EXS5XU
Flight time N/A
Altitude 38000
Route NORBO L186 TRN P600 BLACA DCT NIMAT DCT DUB/M080F380 DCT OMOKO T16 NAVIX/N0455F380 DCT IRSAN DCT FAGUT DCT ORTIS
Aircraft B738/M-SDE2E3FGHIRWXY/LB1

Departure

Time 2026-04-29 16:21
Airport Glasgow Airport (EGPF)

Arrival

Time N/A
Airport Tenerife Sur Airport (GCTS)
Time Latitude Longitude Altitude Speed Heading
2026-04-29 15:49 55.86473 -4.43634 28 ft 0 kts 253°
2026-04-29 16:09 55.86478 -4.43606 28 ft 4 kts 253°
2026-04-29 16:09 55.86485 -4.43559 28 ft 4 kts 257°
2026-04-29 16:09 55.86489 -4.43513 28 ft 4 kts 275°
2026-04-29 16:10 55.86485 -4.43483 28 ft 0 kts 298°
2026-04-29 16:16 55.86494 -4.43495 28 ft 3 kts 326°
2026-04-29 16:16 55.86520 -4.43515 28 ft 5 kts 341°
2026-04-29 16:16 55.86564 -4.43538 28 ft 8 kts 343°
2026-04-29 16:16 55.86621 -4.43568 28 ft 10 kts 344°
2026-04-29 16:17 55.86686 -4.43600 28 ft 10 kts 344°
2026-04-29 16:17 55.86738 -4.43660 28 ft 10 kts 285°
2026-04-29 16:17 55.86714 -4.43795 28 ft 14 kts 227°
2026-04-29 16:17 55.86629 -4.43950 28 ft 19 kts 226°
2026-04-29 16:18 55.86541 -4.44117 28 ft 18 kts 227°
2026-04-29 16:18 55.86455 -4.44279 28 ft 18 kts 226°
2026-04-29 16:18 55.86371 -4.44434 28 ft 17 kts 226°
2026-04-29 16:18 55.86291 -4.44584 28 ft 16 kts 226°
2026-04-29 16:19 55.86254 -4.44690 28 ft 10 kts 277°
2026-04-29 16:19 55.86292 -4.44782 28 ft 9 kts 316°
2026-04-29 16:19 55.86339 -4.44859 28 ft 9 kts 319°
2026-04-29 16:19 55.86391 -4.44829 28 ft 9 kts 46°
2026-04-29 16:20 55.86394 -4.44825 28 ft 0 kts 46°
2026-04-29 16:20 55.86455 -4.44709 28 ft 42 kts 46°
2026-04-29 16:20 55.86833 -4.44003 28 ft 111 kts 46°
2026-04-29 16:20 55.87488 -4.42772 66 ft 161 kts 47°
2026-04-29 16:21 55.88290 -4.41280 677 ft 172 kts 47°
2026-04-29 16:21 55.89158 -4.39721 1496 ft 177 kts 47°
2026-04-29 16:21 55.90066 -4.38064 1957 ft 198 kts 48°
2026-04-29 16:21 55.91055 -4.36197 2166 ft 221 kts 48°
2026-04-29 16:22 55.92116 -4.34172 2714 ft 227 kts 48°
2026-04-29 16:22 55.93357 -4.32276 3106 ft 249 kts 29°
2026-04-29 16:22 55.95074 -4.31468 3728 ft 264 kts
2026-04-29 16:22 55.96880 -4.32208 4441 ft 273 kts 332°
2026-04-29 16:23 55.98299 -4.34444 5211 ft 278 kts 303°
2026-04-29 16:23 55.98958 -4.37662 5964 ft 278 kts 274°
2026-04-29 16:23 55.98711 -4.41086 6607 ft 283 kts 245°
2026-04-29 16:23 55.97591 -4.43906 7316 ft 279 kts 215°
2026-04-29 16:24 55.95886 -4.45474 8031 ft 277 kts 195°
2026-04-29 16:24 55.94038 -4.46489 8759 ft 280 kts 193°
2026-04-29 16:24 55.92149 -4.47434 9466 ft 284 kts 192°
2026-04-29 16:24 55.90237 -4.48377 10201 ft 287 kts 192°
2026-04-29 16:25 55.88294 -4.49341 10736 ft 296 kts 192°
2026-04-29 16:25 55.86233 -4.50371 10893 ft 319 kts 193°
2026-04-29 16:25 55.84032 -4.51482 11065 ft 340 kts 193°
2026-04-29 16:25 55.81704 -4.52668 11390 ft 354 kts 193°
2026-04-29 16:26 55.79313 -4.53897 11963 ft 360 kts 193°
2026-04-29 16:26 55.76900 -4.55141 12622 ft 363 kts 193°
2026-04-29 16:26 55.74462 -4.56399 13240 ft 367 kts 193°
2026-04-29 16:26 55.71999 -4.57669 13905 ft 371 kts 193°
2026-04-29 16:27 55.69506 -4.58953 14468 ft 376 kts 193°
2026-04-29 16:27 55.66980 -4.60251 15021 ft 380 kts 193°
2026-04-29 16:27 55.64428 -4.61559 15579 ft 384 kts 193°
2026-04-29 16:27 55.61852 -4.62879 16119 ft 388 kts 193°
2026-04-29 16:28 55.59244 -4.64213 16640 ft 393 kts 193°
2026-04-29 16:28 55.56638 -4.65545 17162 ft 397 kts 193°
2026-04-29 16:28 55.53974 -4.66904 17716 ft 401 kts 193°
2026-04-29 16:28 55.51284 -4.68275 18247 ft 405 kts 194°
2026-04-29 16:29 55.48562 -4.69660 18709 ft 410 kts 194°
2026-04-29 16:29 55.45808 -4.71059 19156 ft 413 kts 194°
2026-04-29 16:29 55.43038 -4.72465 19631 ft 416 kts 194°
2026-04-29 16:29 55.40243 -4.73881 20100 ft 419 kts 194°
2026-04-29 16:30 55.37428 -4.75306 20509 ft 424 kts 194°
2026-04-29 16:30 55.34583 -4.76743 20942 ft 427 kts 194°
2026-04-29 16:30 55.31722 -4.78223 21387 ft 430 kts 197°
2026-04-29 16:30 55.28950 -4.80274 21798 ft 435 kts 206°
2026-04-29 16:31 55.26250 -4.82723 22192 ft 439 kts 207°
2026-04-29 16:31 55.23532 -4.85219 22598 ft 442 kts 207°
2026-04-29 16:31 55.20785 -4.87685 23028 ft 445 kts 206°
2026-04-29 16:31 55.18013 -4.90127 23454 ft 448 kts 206°
2026-04-29 16:32 55.15206 -4.92559 23823 ft 452 kts 206°
2026-04-29 16:32 55.13332 -4.94175 24041 ft 454 kts 206°
2026-04-29 16:32 55.09532 -4.97456 24511 ft 457 kts 206°
2026-04-29 16:32 55.06682 -4.99936 24880 ft 458 kts 206°
2026-04-29 16:33 55.00945 -5.04939 25516 ft 464 kts 206°
2026-04-29 16:33 54.98054 -5.07453 25842 ft 465 kts 206°
2026-04-29 16:33 54.95150 -5.09974 26181 ft 467 kts 206°
2026-04-29 16:34 54.92231 -5.12502 26469 ft 470 kts 206°
2026-04-29 16:34 54.89293 -5.15041 26763 ft 473 kts 206°
2026-04-29 16:34 54.86338 -5.17373 27072 ft 474 kts 201°
2026-04-29 16:34 54.83260 -5.19445 27381 ft 475 kts 200°
2026-04-29 16:35 54.80143 -5.21416 27640 ft 478 kts 199°
2026-04-29 16:35 54.77004 -5.23363 27912 ft 481 kts 199°
2026-04-29 16:35 54.73851 -5.25326 28210 ft 482 kts 199°
2026-04-29 16:35 54.70698 -5.27311 28503 ft 483 kts 200°
2026-04-29 16:36 54.67532 -5.29324 28732 ft 486 kts 200°
2026-04-29 16:36 54.64350 -5.31360 28978 ft 488 kts 200°
2026-04-29 16:36 54.61161 -5.33407 29254 ft 490 kts 200°
2026-04-29 16:36 54.57967 -5.35457 29538 ft 491 kts 200°
2026-04-29 16:37 54.54767 -5.37508 29854 ft 491 kts 200°
2026-04-29 16:37 54.51566 -5.39555 30223 ft 490 kts 200°
2026-04-29 16:37 54.48380 -5.41588 30586 ft 488 kts 200°
2026-04-29 16:37 54.46273 -5.42930 30785 ft 487 kts 200°
2026-04-29 16:38 54.42012 -5.45638 31080 ft 489 kts 200°
2026-04-29 16:38 54.38816 -5.47665 31313 ft 490 kts 200°
2026-04-29 16:38 54.35622 -5.49688 31613 ft 489 kts 200°
2026-04-29 16:38 54.32437 -5.51701 31938 ft 487 kts 200°
2026-04-29 16:39 54.29255 -5.53710 32149 ft 488 kts 200°
2026-04-29 16:39 54.27146 -5.55039 32270 ft 489 kts 200°
2026-04-29 16:39 54.23953 -5.57050 32497 ft 489 kts 200°
2026-04-29 16:39 54.20761 -5.59056 32788 ft 488 kts 199°
2026-04-29 16:40 54.17579 -5.61052 33041 ft 488 kts 200°
2026-04-29 16:40 54.14388 -5.63051 33221 ft 489 kts 199°
2026-04-29 16:40 54.11195 -5.65049 33441 ft 489 kts 199°
2026-04-29 16:40 54.08002 -5.67042 33709 ft 488 kts 199°
2026-04-29 16:41 54.04818 -5.69029 33941 ft 488 kts 199°
2026-04-29 16:41 54.01631 -5.71012 34111 ft 489 kts 199°
2026-04-29 16:41 53.98439 -5.73021 34318 ft 489 kts 202°
2026-04-29 16:41 53.95377 -5.75507 34523 ft 488 kts 211°
2026-04-29 16:42 53.92566 -5.78718 34741 ft 486 kts 217°
2026-04-29 16:42 53.89846 -5.82112 34944 ft 485 kts 217°
2026-04-29 16:42 53.87137 -5.85522 35137 ft 485 kts 217°
2026-04-29 16:42 53.84427 -5.88913 35349 ft 483 kts 217°
2026-04-29 16:43 53.81722 -5.92261 35591 ft 481 kts 217°
2026-04-29 16:43 53.79017 -5.95576 35829 ft 479 kts 216°
2026-04-29 16:43 53.76323 -5.98858 36035 ft 478 kts 216°
2026-04-29 16:43 53.73621 -6.02134 36196 ft 477 kts 216°
2026-04-29 16:44 53.68211 -6.08678 36291 ft 480 kts 216°
2026-04-29 16:44 53.62784 -6.15226 36296 ft 479 kts 216°
2026-04-29 16:45 53.57413 -6.21689 36291 ft 477 kts 216°
2026-04-29 16:45 53.52025 -6.28155 36290 ft 475 kts 216°
2026-04-29 16:46 53.46764 -6.34823 36296 ft 473 kts 220°
2026-04-29 16:46 53.41712 -6.41891 36293 ft 473 kts 221°
2026-04-29 16:47 53.36682 -6.48994 36298 ft 473 kts 221°
2026-04-29 16:47 53.31618 -6.56054 36299 ft 474 kts 221°
2026-04-29 16:48 53.26525 -6.63082 36293 ft 476 kts 221°
2026-04-29 16:48 53.21403 -6.70111 36285 ft 477 kts 220°
2026-04-29 16:49 53.16265 -6.77141 36274 ft 478 kts 221°
2026-04-29 16:49 53.11111 -6.84173 36259 ft 479 kts 220°
2026-04-29 16:50 53.05943 -6.91201 36244 ft 480 kts 220°
2026-04-29 16:50 53.00800 -6.98174 36242 ft 480 kts 220°
2026-04-29 16:51 52.95623 -7.05171 36235 ft 480 kts 220°
2026-04-29 16:51 52.90436 -7.12158 36235 ft 480 kts 220°
2026-04-29 16:52 52.85253 -7.19118 36222 ft 479 kts 220°
2026-04-29 16:52 52.80075 -7.26050 36228 ft 479 kts 220°
2026-04-29 16:53 52.74899 -7.32957 36216 ft 478 kts 220°
2026-04-29 16:53 52.69732 -7.39830 36219 ft 477 kts 220°
2026-04-29 16:54 52.64569 -7.46677 36211 ft 476 kts 220°
2026-04-29 16:54 52.59410 -7.53497 36214 ft 475 kts 220°
2026-04-29 16:55 52.54257 -7.60288 36210 ft 474 kts 220°
2026-04-29 16:55 52.49105 -7.67056 36211 ft 474 kts 220°
2026-04-29 16:56 52.43952 -7.73805 36205 ft 474 kts 220°
2026-04-29 16:56 52.38795 -7.80538 36193 ft 474 kts 220°
2026-04-29 16:57 52.33631 -7.87261 36200 ft 474 kts 220°
2026-04-29 16:57 52.28461 -7.93969 36194 ft 475 kts 220°
2026-04-29 16:58 52.23277 -8.00677 36195 ft 476 kts 220°
2026-04-29 16:58 52.18082 -8.07376 36186 ft 476 kts 220°
2026-04-29 16:59 52.12914 -8.14022 36186 ft 477 kts 220°
2026-04-29 16:59 52.07700 -8.20705 36173 ft 477 kts 220°
2026-04-29 17:00 52.02481 -8.27375 36180 ft 478 kts 220°
2026-04-29 17:00 51.97254 -8.34034 36179 ft 478 kts 220°
2026-04-29 17:01 51.92021 -8.40682 36183 ft 478 kts 220°
2026-04-29 17:01 51.86791 -8.47304 36188 ft 477 kts 220°
2026-04-29 17:02 51.81555 -8.53915 36179 ft 477 kts 220°
2026-04-29 17:02 51.76323 -8.60499 36189 ft 477 kts 219°
2026-04-29 17:03 51.71093 -8.67068 36171 ft 476 kts 219°
2026-04-29 17:03 51.65855 -8.73619 36166 ft 477 kts 219°
2026-04-29 17:04 51.60608 -8.80161 36166 ft 477 kts 219°
2026-04-29 17:04 51.55359 -8.86689 36145 ft 477 kts 219°
2026-04-29 17:05 51.50105 -8.93203 36144 ft 477 kts 219°
2026-04-29 17:05 51.44848 -8.99701 36138 ft 477 kts 218°
2026-04-29 17:06 51.39589 -9.06183 36134 ft 477 kts 218°
2026-04-29 17:06 51.34362 -9.12606 36131 ft 476 kts 218°
2026-04-29 17:07 51.29104 -9.19048 36129 ft 476 kts 218°
2026-04-29 17:07 51.23846 -9.25472 36126 ft 476 kts 218°
2026-04-29 17:08 51.18585 -9.31879 36123 ft 475 kts 218°
2026-04-29 17:08 51.13326 -9.38266 36115 ft 475 kts 218°
2026-04-29 17:09 51.08072 -9.44628 36118 ft 475 kts 217°
2026-04-29 17:09 51.02811 -9.50979 36113 ft 474 kts 217°
2026-04-29 17:10 50.97557 -9.57304 36114 ft 474 kts 217°
2026-04-29 17:10 50.92303 -9.63610 36108 ft 474 kts 217°
2026-04-29 17:11 50.87083 -9.69858 36113 ft 473 kts 217°
2026-04-29 17:11 50.81828 -9.76129 36098 ft 473 kts 217°
2026-04-29 17:12 50.76572 -9.82383 36104 ft 473 kts 217°
2026-04-29 17:12 50.72164 -9.87614 36090 ft 473 kts 217°
2026-04-29 17:13 50.66051 -9.94849 36092 ft 473 kts 216°
2026-04-29 17:13 50.60779 -10.01068 36101 ft 473 kts 216°
2026-04-29 17:14 50.55508 -10.07268 36092 ft 473 kts 216°
2026-04-29 17:14 50.50231 -10.13458 36096 ft 473 kts 216°
2026-04-29 17:15 50.44945 -10.19640 36085 ft 474 kts 216°
2026-04-29 17:15 50.39658 -10.25806 36088 ft 474 kts 216°
2026-04-29 17:16 50.34682 -10.31594 36083 ft 474 kts 216°
2026-04-29 17:16 50.29383 -10.37739 36084 ft 474 kts 216°
2026-04-29 17:17 50.24081 -10.43872 36074 ft 474 kts 215°
2026-04-29 17:17 50.18780 -10.49986 36079 ft 474 kts 215°
2026-04-29 17:18 50.13479 -10.56082 36065 ft 473 kts 215°
2026-04-29 17:18 50.08176 -10.62163 36071 ft 473 kts 215°
2026-04-29 17:19 50.02876 -10.68224 36060 ft 473 kts 215°
2026-04-29 17:19 49.97611 -10.74229 36067 ft 472 kts 215°
2026-04-29 17:20 49.92318 -10.80249 36052 ft 472 kts 214°
2026-04-29 17:20 49.87020 -10.86257 36060 ft 471 kts 214°
2026-04-29 17:21 49.81730 -10.92240 36052 ft 471 kts 214°
2026-04-29 17:21 49.76435 -10.98211 36054 ft 471 kts 214°
2026-04-29 17:22 49.71142 -11.04165 36039 ft 470 kts 214°
2026-04-29 17:22 49.65846 -11.10105 36049 ft 470 kts 214°
2026-04-29 17:23 49.60554 -11.16024 36036 ft 470 kts 214°
2026-04-29 17:23 49.55253 -11.21937 36039 ft 470 kts 214°
2026-04-29 17:24 49.49955 -11.27831 36031 ft 470 kts 214°
2026-04-29 17:24 49.44649 -11.33717 36038 ft 470 kts 214°
2026-04-29 17:25 49.39343 -11.39588 36016 ft 470 kts 214°
2026-04-29 17:25 49.34066 -11.45410 36030 ft 470 kts 214°
2026-04-29 17:26 49.28751 -11.51258 36018 ft 470 kts 214°
2026-04-29 17:26 49.23432 -11.57097 36028 ft 470 kts 214°
2026-04-29 17:27 49.18110 -11.62922 36014 ft 471 kts 214°
2026-04-29 17:27 49.12779 -11.68740 36020 ft 471 kts 214°
2026-04-29 17:28 49.07449 -11.74543 36011 ft 471 kts 214°
2026-04-29 17:28 49.02111 -11.80339 36021 ft 471 kts 214°
2026-04-29 17:29 48.96767 -11.86126 36011 ft 471 kts 214°
2026-04-29 17:29 48.92329 -11.90921 36008 ft 471 kts 214°
2026-04-29 17:30 48.86080 -11.97654 36005 ft 471 kts 213°
2026-04-29 17:30 48.80318 -12.02232 36027 ft 466 kts 198°
2026-04-29 17:31 48.75247 -12.05022 36002 ft 467 kts 198°
2026-04-29 17:31 48.69134 -12.08329 36001 ft 467 kts 198°
2026-04-29 17:32 48.63024 -12.11688 36001 ft 467 kts 198°
2026-04-29 17:32 48.56925 -12.15076 35997 ft 467 kts 198°
2026-04-29 17:33 48.50820 -12.18471 35999 ft 468 kts 198°
2026-04-29 17:33 48.44712 -12.21859 35990 ft 468 kts 198°
2026-04-29 17:34 48.41657 -12.23550 36279 ft 469 kts 198°
2026-04-29 17:34 48.38628 -12.25223 36141 ft 472 kts 198°
2026-04-29 17:34 48.32454 -12.28625 36034 ft 473 kts 198°
2026-04-29 17:35 48.23185 -12.33720 35985 ft 472 kts 198°
2026-04-29 17:36 48.17032 -12.37092 35976 ft 468 kts 198°
2026-04-29 17:36 48.10945 -12.40419 35972 ft 463 kts 199°
2026-04-29 17:37 48.04950 -12.43688 35979 ft 458 kts 199°
2026-04-29 17:37 47.98936 -12.46957 35992 ft 462 kts 199°
2026-04-29 17:38 47.92870 -12.50244 35987 ft 465 kts 199°
2026-04-29 17:38 47.86769 -12.53544 35986 ft 468 kts 199°
2026-04-29 17:39 47.80634 -12.56855 35986 ft 470 kts 199°
2026-04-29 17:39 47.74466 -12.60175 35981 ft 472 kts 199°
2026-04-29 17:40 47.68275 -12.63500 35977 ft 473 kts 199°
2026-04-29 17:40 47.62100 -12.66807 35962 ft 469 kts 200°
2026-04-29 17:41 47.55989 -12.70071 35966 ft 465 kts 200°
2026-04-29 17:41 47.49932 -12.73299 35968 ft 461 kts 200°
2026-04-29 17:42 47.43947 -12.76481 35979 ft 460 kts 200°
2026-04-29 17:42 47.37918 -12.79677 35978 ft 461 kts 200°
2026-04-29 17:43 47.31870 -12.82877 35985 ft 463 kts 200°
2026-04-29 17:43 47.25798 -12.86081 35980 ft 465 kts 200°
2026-04-29 17:44 47.19671 -12.89307 35978 ft 470 kts 200°
2026-04-29 17:44 47.13484 -12.92556 35976 ft 473 kts 200°
2026-04-29 17:45 47.07266 -12.95813 35972 ft 475 kts 201°
2026-04-29 17:45 47.01920 -12.98606 35962 ft 472 kts 201°
2026-04-29 17:46 47.00533 -12.99329 35965 ft 472 kts 201°
2026-04-29 17:46 46.94362 -13.02546 35962 ft 469 kts 201°
2026-04-29 17:47 46.88241 -13.05730 35964 ft 464 kts 200°
2026-04-29 17:47 46.82184 -13.08867 35965 ft 459 kts 201°
2026-04-29 17:48 46.76175 -13.11975 35975 ft 457 kts 201°
2026-04-29 17:48 46.71304 -13.14490 35981 ft 460 kts 201°
2026-04-29 17:49 46.67811 -13.16292 35980 ft 463 kts 201°
2026-04-29 17:49 46.61718 -13.19429 35971 ft 463 kts 201°